This is the latest recevied weather packets stored in our database for station/object SP1BMW-13. If no packets are shown the sender has not sent any weather packets the latest 10 day(s).
| Time | Temp. | Humidity | Pressure | Rain* | Wind** | Luminosity | Snow |
|---|---|---|---|---|---|---|---|
| 1787662897 | 23.33° C | 42% | 1018.1 hPa | 0 mm | 1.79 m/s, 64° | 130 W/m² | - |
| 1787662837 | 23.33° C | 43% | 1018.2 hPa | 0 mm | 0.89 m/s, 28° | 126 W/m² | - |
| 1787662777 | 23.89° C | 43% | 1018 hPa | 0 mm | 0.45 m/s, 37° | 119 W/m² | - |
| 1787662717 | 23.89° C | 40% | 1018 hPa | 0 mm | 1.79 m/s, 27° | 245 W/m² | - |
| 1787662658 | 23.89° C | 41% | 1018.2 hPa | 0 mm | 2.24 m/s, 35° | 136 W/m² | - |
| 1787662598 | 24.44° C | 42% | 1018.1 hPa | 0 mm | 2.68 m/s, 61° | 216 W/m² | - |
| 1787662538 | 24.44° C | 44% | 1018 hPa | 0 mm | 0.89 m/s, 30° | 649 W/m² | - |
| 1787662478 | 24.44° C | 41% | 1018.2 hPa | 0 mm | 1.34 m/s, 44° | 651 W/m² | - |
| 1787662417 | 24.44° C | 44% | 1018.1 hPa | 0 mm | 1.79 m/s, 32° | 644 W/m² | - |
| 1787662357 | 23.89° C | 42% | 1017.9 hPa | 0 mm | 1.34 m/s, 40° | 638 W/m² | - |
| 1787662298 | 23.89° C | 42% | 1018 hPa | 0 mm | 1.34 m/s, 128° | 642 W/m² | - |
| 1787662238 | 23.89° C | 46% | 1018 hPa | 0 mm | 0.45 m/s, 80° | 647 W/m² | - |
| 1787662177 | 23.89° C | 44% | 1018 hPa | 0 mm | 1.79 m/s, 47° | 651 W/m² | - |
| 1787662117 | 23.89° C | 44% | 1018.1 hPa | 0 mm | 1.79 m/s, 32° | 652 W/m² | - |
| 1787662058 | 23.89° C | 43% | 1018 hPa | 0 mm | 0.89 m/s, 38° | 649 W/m² | - |
| 1787661997 | 23.89° C | 44% | 1018.1 hPa | 0 mm | 1.79 m/s, 17° | 649 W/m² | - |
| 1787661937 | 23.89° C | 42% | 1017.9 hPa | 0 mm | 0 m/s | 654 W/m² | - |
| 1787661877 | 23.89° C | 43% | 1018.2 hPa | 0 mm | 1.34 m/s, 35° | 658 W/m² | - |
| 1787661818 | 23.33° C | 44% | 1018.3 hPa | 0 mm | 0.89 m/s, 69° | 667 W/m² | - |
| 1787661757 | 23.33° C | 45% | 1018.3 hPa | 0 mm | 0.89 m/s, 99° | 674 W/m² | - |
| 1787661697 | 23.33° C | 45% | 1018.1 hPa | 0 mm | 0.89 m/s, 47° | 674 W/m² | - |
| 1787661638 | 23.33° C | 43% | 1018.1 hPa | 0 mm | 1.34 m/s, 63° | 671 W/m² | - |
| 1787661577 | 23.89° C | 42% | 1018.3 hPa | 0 mm | 1.79 m/s, 24° | 669 W/m² | - |
| 1787661517 | 23.89° C | 42% | 1018.3 hPa | 0 mm | 1.79 m/s, 10° | 667 W/m² | - |
| 1787661458 | 23.89° C | 44% | 1018.3 hPa | 0 mm | 0.89 m/s, 40° | 671 W/m² | - |
* Rain latest hour (hover to see other rain measurements)
** Current wind speed in m/s (hover to see current wind gust speed)